User: anonymous   Login
Location: Coleman
(45.0650°N, 88.0340°W)
Time: 01:41:22
(UTC-05:00)
Language:

Iridium 97 - Orbit

View from above orbital plane
View from above orbital plane
View from above satellite
View from above satellite

Ground track
Ground track

The orbit data is extracted from the following two-line orbital elements,

1 27450U 02031A   15089.54763623  .00000246  00000-0  80605-4 0  9998
2 27450 086.3928 297.3315 0002110 075.5727 284.5703 14.34217037674180
Epoch (UTC): 30 March 2015 13:08:35
Eccentricity: 0.0002110
inclination: 86.3928°
perigee height: 776 km
apogee height: 779 km
right ascension of ascending node: 297.3315°
argument of perigee: 75.5727°
revolutions per day: 14.34217037
mean anomaly at epoch: 284.5703°
orbit number at epoch: 67418

The dashed part of the orbit path shows where the satellite is in the earth's shadow,  

DLR